This is the latest recevied weather packets stored in our database for station/object EA1BQO-1. If no packets are shown the sender has not sent any weather packets the latest 10 day(s).
| Time | Temp. | Humidity | Pressure | Rain* | Wind** | Luminosity | Snow |
|---|---|---|---|---|---|---|---|
| 1778034406 | 5° C | 99% | 1011.2 hPa | 0 mm | - | - | - |
| 1778033805 | 5° C | 99% | 1011.2 hPa | 0 mm | - | - | - |
| 1778033205 | 4.44° C | 99% | 1011.4 hPa | 0 mm | - | - | - |
| 1778032606 | 4.44° C | 99% | 1011.4 hPa | 0 mm | - | - | - |
| 1778032005 | 4.44° C | 99% | 1011.4 hPa | 0 mm | - | - | - |
| 1778031405 | 5° C | 99% | 1011.4 hPa | 0 mm | - | - | - |
| 1778030805 | 5° C | 98% | 1011.2 hPa | 0 mm | - | - | - |
| 1778030206 | 5° C | 98% | 1011.4 hPa | 0 mm | - | - | - |
| 1778029605 | 5.56° C | 97% | 1011.3 hPa | 0 mm | - | - | - |
| 1778029005 | 5.56° C | 97% | 1011.5 hPa | 0 mm | - | - | - |
| 1778028405 | 5.56° C | 96% | 1011.4 hPa | 0 mm | - | - | - |
| 1778027805 | 5.56° C | 96% | 1011.4 hPa | 0 mm | - | - | - |
| 1778027205 | 5.56° C | 96% | 1011.6 hPa | 0 mm | - | - | - |
| 1778026605 | 6.11° C | 96% | 1011.8 hPa | 0 mm | - | - | - |
| 1778026005 | 6.67° C | 95% | 1011.7 hPa | 0 mm | - | - | - |
| 1778025405 | 6.67° C | 95% | 1011.8 hPa | 0 mm | - | - | - |
| 1778024805 | 6.67° C | 96% | 1011.8 hPa | 0 mm | - | - | - |
| 1778024205 | 7.22° C | 97% | 1011.7 hPa | 0 mm | - | - | - |
| 1778023606 | 7.22° C | 96% | 1011.7 hPa | 0 mm | - | - | - |
| 1778023005 | 7.22° C | 95% | 1011.7 hPa | 0 mm | - | - | - |
| 1778022405 | 7.78° C | 94% | 1011.7 hPa | 0 mm | - | - | - |
| 1778021805 | 7.78° C | 93% | 1011.8 hPa | 0 mm | - | - | - |
| 1778021205 | 7.78° C | 93% | 1011.8 hPa | 0 mm | - | - | - |
| 1778020605 | 7.78° C | 93% | 1012 hPa | 0 mm | - | - | - |
| 1778020005 | 8.33° C | 92% | 1011.8 hPa | 0 mm | - | - | - |
* Rain latest hour (hover to see other rain measurements)
** Current wind speed in m/s (hover to see current wind gust speed)